TimeCST,TemperatureF,Dew PointF,Humidity,Sea Level PressureIn,VisibilityMPH,Wind Direction,Wind SpeedMPH,Gust SpeedMPH,PrecipitationIn,Events,Conditions,WindDirDegrees,DateUTC
12:00 AM,77.0,73.4,89,29.83,4.3,SE,4.6,-,N/A,,Scattered Clouds,130,2012-10-17 06:00:00
1:00 AM,77.0,73.4,89,29.83,5.0,Calm,Calm,-,N/A,,Partly Cloudy,0,2012-10-17 07:00:00
2:00 AM,75.2,71.6,89,29.80,5.0,Calm,Calm,-,N/A,,Partly Cloudy,0,2012-10-17 08:00:00
3:00 AM,75.2,71.6,89,29.80,5.0,Calm,Calm,-,N/A,,Partly Cloudy,0,2012-10-17 09:00:00
4:00 AM,73.4,71.6,94,29.80,4.3,ESE,4.6,-,N/A,,Partly Cloudy,120,2012-10-17 10:00:00
5:00 AM,75.2,71.6,89,29.83,4.3,Calm,Calm,-,N/A,,Scattered Clouds,0,2012-10-17 11:00:00
6:00 AM,73.4,71.6,94,29.80,5.0,Calm,Calm,-,N/A,,Partly Cloudy,0,2012-10-17 12:00:00
7:00 AM,78.8,73.4,83,29.86,5.0,West,4.6,-,N/A,Thunderstorm,Light Thunderstorm,280,2012-10-17 13:00:00
8:00 AM,80.6,75.2,84,29.86,5.6,NW,6.9,-,N/A,,Partly Cloudy,320,2012-10-17 14:00:00
9:00 AM,82.4,75.2,79,29.86,5.6,NW,9.2,-,N/A,,Partly Cloudy,320,2012-10-17 15:00:00
10:00 AM,82.4,75.2,79,29.86,5.6,NW,4.6,-,N/A,,Partly Cloudy,310,2012-10-17 16:00:00
11:00 AM,86.0,75.2,70,29.86,5.6,NNW,6.9,-,N/A,,Partly Cloudy,330,2012-10-17 17:00:00
12:00 PM,86.0,75.2,70,29.83,5.6,NNW,9.2,-,N/A,,Partly Cloudy,330,2012-10-17 18:00:00
1:00 PM,87.8,75.2,66,29.77,5.6,NW,6.9,-,N/A,,Partly Cloudy,310,2012-10-17 19:00:00
2:00 PM,89.6,75.2,62,29.74,5.6,NNW,4.6,-,N/A,,Partly Cloudy,330,2012-10-17 20:00:00
3:00 PM,87.8,73.4,62,29.74,5.6,WNW,4.6,-,N/A,,Partly Cloudy,290,2012-10-17 21:00:00
4:00 PM,89.6,73.4,59,29.74,5.6,West,13.8,-,N/A,,Partly Cloudy,260,2012-10-17 22:00:00
5:00 PM,86.0,73.4,66,29.74,5.6,WSW,9.2,-,N/A,,Partly Cloudy,240,2012-10-17 23:00:00
6:00 PM,84.2,73.4,70,29.77,5.6,West,6.9,-,N/A,,Scattered Clouds,280,2012-10-18 00:00:00
7:00 PM,82.4,73.4,74,29.80,5.6,Calm,Calm,-,N/A,,Scattered Clouds,0,2012-10-18 01:00:00
8:00 PM,78.8,73.4,83,29.83,5.0,SW,4.6,-,N/A,,Scattered Clouds,220,2012-10-18 02:00:00
9:00 PM,78.8,73.4,83,29.86,5.0,South,4.6,-,N/A,,Scattered Clouds,180,2012-10-18 03:00:00
10:00 PM,77.0,73.4,89,29.83,5.0,Calm,Calm,-,N/A,,Scattered Clouds,0,2012-10-18 04:00:00
11:00 PM,77.0,73.4,89,29.86,5.0,Calm,Calm,-,N/A,,Scattered Clouds,0,2012-10-18 05:00:00